Location: Dötzum
(52.0808°N, 9.8063°E)
Time: 05:33:15
(UTC+00:00)

Cosmos 1709 Rocket - Pass Details

Date: 27 May 2022
Orbit: 947 x 1002 km, 82.9° (Epoch: 26 June)

Event Time Altitude Azimuth Distance (km) Brightness Sun altitude
Rises 00:06:36 0° 349° (NNW) 3,653 8.3 -15.9°
Reaches altitude 10° 00:09:06 10° 349° (NNW) 2,696 7.4 -15.8°
Maximum altitude 00:15:16 84° 263° (W) 962 3.9 -15.6°
Enters shadow 00:19:32 21° 176° (S) 1,992 5.1 -15.4°
